MBS International Airport
KMBS : now visible

Airfield :











YOU CAN JOIN US ON...

 
LOGIN :

Register | Disclaimer

   EN    FR    IT 

 









Legend :    VFR   Marginal VFR   IFR   Intensive IFR   Very Intensive IFR
Visi :
Ceiling :
>= 8 km
>= 3000ft
5 to 8 km
1000 to 3000 ft
1500m to 5 km
500 to 1000 ft
800 to 1500m
200 to 500 ft
< 800m
< 200 ft
Symbols :   Thunderstorms  Fog  Heavy snow  Heavy precipitations  Wind > 20 kt






- Airport Elevation : 668 ft
- IATA code : MBS


KMBS - MBS International

CURRENT METAR :
  • 230753Z AUTO 29009KT 10SM OVC033 M08/M14 A3025 RMK AO2 SLP256 T10781139

EXPIRED METARs :
  • 230653Z AUTO 27011KT 10SM OVC037 M08/M14 A3023 RMK AO2 SLP249 T10781144
  • 230553Z AUTO 29011KT 10SM OVC040 M08/M15 A3021 RMK AO2 SLP243 T10781150 11072 21083 51014

TAF KMBS
Valid from the 23 at 06:00 until the 24 at 06:00 UTC


230523Z 2306/2406 30013KT P6SM BKN040
FM231700 26007KT P6SM BKN250
FM232300 22005KT P6SM OVC200
KZOB FIR / North America



MET'MAP, your aeronautical weather chart ! - Copyright ORBIFLY December 2007 - Disclaimer

ORBIFLY MET'MAP TEAM :

Programming & Development : Alexandra Zaïnal
Concept & original design : Baudouin d'Aumeries
Assistance for programming : Marc-Olivier Méhu
Technical & hardware support : Manuel Goepfert

Contact : metmap@orbifly.com




SOURCES & CREDITS :

   NOAA       Earth
Advisory